This demonstration page uses our WeatherBlox Daily Observations layout. Learn more.

Left ArrowRight Arrow

Hourly Observations for April 11, 2021

Temp ( °F °C ) Dew Point ( °F °C ) Humidity (%) Winds ( mph kmh ) Pressure ( in mb ) Visibility ( mi km ) Precip ( " mm )
12:56 am 00:56 Clear 40 4.4 27 -2.8 60 60 SSW 7 11 29.67 1005 10 16 0.00 0.00
1:56 am 01:56 Clear 41 5 26 -3.3 55 55 S 6 9 29.65 1004 10 16 0.00 0.00
2:56 am 02:56 Clear 36 2.2 28 -2.2 73 73 SSW 7 11 29.63 1004 10 16 0.00 0.00
3:56 am 03:56 Clear 39 3.9 26 -3.3 60 60 SSW 9 15 29.60 1002 10 16 0.00 0.00
4:56 am 04:56 Clear 36 2.2 27 -2.8 70 70 S 6 9 29.58 1002 10 16 0.00 0.00
5:56 am 05:56 Clear 37 2.8 27 -2.8 67 67 S 6 9 29.56 1001 10 16 0.00 0.00
6:56 am 06:56 Clear 35 1.7 27 -2.8 72 72 Calm 29.55 1001 10 16 0.00 0.00
7:56 am 07:56 Sunny 34 1.1 30 -1.1 85 85 Calm 29.59 1002 10 16 0.00 0.00
8:56 am 08:56 Sunny 45 7.2 30 -1.1 56 56 NW 14 22 29.60 1002 10 16 0.00 0.00
9:56 am 09:56 Sunny 49 9.4 33 0.6 55 55 NNW 25 41 29.63 1003 10 16 0.00 0.00
10:56 am 10:56 Sunny 53 11.7 35 1.7 51 51 NNW 26 43 29.66 1004 10 16 0.00 0.00
11:56 am 11:56 Sunny 55 12.8 35 1.7 47 47 NW 28 44 29.68 1005 10 16 0.00 0.00
12:56 pm 12:56 Sunny 57 13.9 35 1.7 44 44 NNW 28 44 29.69 1006 10 16 0.00 0.00
1:56 pm 13:56 Sunny 59 15 35 1.7 41 41 NW 25 41 29.72 1006 10 16 0.00 0.00
2:56 pm 14:56 Sunny 58 14.4 35 1.7 42 42 NNW 31 50 29.74 1007 10 16 0.00 0.00
3:56 pm 15:56 Sunny 57 13.9 34 1.1 42 42 NNW 32 52 29.72 1006 10 16 0.00 0.00
4:56 pm 16:56 Sunny 58 14.4 33 0.6 39 39 NNW 30 48 29.74 1007 10 16 0.00 0.00
5:56 pm 17:56 Sunny 58 14.4 29 -1.7 33 33 N 28 44 29.78 1008 10 16 0.00 0.00
6:56 pm 18:56 Sunny 57 13.9 26 -3.3 30 30 N 23 37 29.81 1009 10 16 0.00 0.00
7:56 pm 19:56 Sunny 54 12.2 25 -3.9 33 33 N 16 26 29.84 1011 10 16 0.00 0.00
8:56 pm 20:56 Clear 50 10 24 -4.4 36 36 N 18 30 29.87 1012 10 16 0.00 0.00
9:56 pm 21:56 Clear 46 7.8 25 -3.9 44 44 N 10 17 29.90 1012 10 16 0.00 0.00
10:56 pm 22:56 Clear 45 7.2 24 -4.4 44 44 NNW 18 30 29.93 1014 10 16 0.00 0.00
11:56 pm 23:56 Clear 43 6.1 27 -2.8 53 53 NNW 26 43 29.97 1015 10 16 0.00 0.00

Powered by AerisWeather